Location: Cedar Falls
(42.5280°N, 92.4450°W)
Time: 15:29:45
(UTC-05:00)

NOSS 3-1 (C) - Visible Passes

Search period start: 28 July 2014 00:00
Search period end: 07 August 2014 00:00
Orbit: 900 x 1310 km, 63.4° (Epoch: 17 July)

Date Brightness Start Highest point End Pass type
(mag) Time Alt. Az. Time Alt. Az. Time Alt. Az.
28 Jul 6.6 00:32:43 10° NNW 00:35:57 13° N 00:39:19 10° NE visible
28 Jul 5.9 02:23:38 10° NNW 02:29:39 27° NE 02:36:04 10° E visible
28 Jul 4.1 04:14:05 10° NW 04:21:35 86° NE 04:29:39 10° SE visible
28 Jul 6.1 21:51:02 10° W 21:55:54 22° NNW 22:01:06 10° NNE visible
28 Jul 6.6 23:46:47 10° NNW 23:49:46 13° N 23:52:51 10° NNE visible
29 Jul 6.2 01:38:34 10° NNW 01:43:48 21° NNE 01:49:20 10° ENE visible
29 Jul 4.5 03:28:55 10° NNW 03:36:15 61° NE 03:44:09 10° SE visible
29 Jul 4.6 05:20:17 10° NW 05:26:58 35° WSW 05:34:01 10° S visible
29 Jul 5.7 21:04:42 10° W 21:10:07 30° NW 21:16:00 10° NNE visible
29 Jul 6.5 23:00:21 10° NW 23:03:35 14° N 23:06:57 10° NNE visible
30 Jul 6.4 00:53:25 10° NNW 00:57:48 17° NNE 01:02:24 10° ENE visible
30 Jul 5.0 02:43:49 10° NNW 02:50:46 43° NE 02:58:15 10° ESE visible
30 Jul 4.1 04:34:41 10° NW 04:41:57 53° WSW 04:49:41 10° S visible
30 Jul 6.4 22:13:39 10° NW 22:17:28 16° NNW 22:21:29 10° NNE visible
31 Jul 6.5 00:08:06 10° NNW 00:11:41 14° NNE 00:15:25 10° NE visible
31 Jul 5.5 01:58:45 10° NNW 02:05:09 32° NE 02:12:00 10° E visible
31 Jul 3.9 03:49:18 10° NW 03:56:48 78° WSW 04:04:51 10° SSE visible
31 Jul 6.2 21:26:58 10° WNW 21:31:28 19° NNW 21:36:16 10° NNE visible
31 Jul 6.5 23:22:27 10° NNW 23:25:30 13° N 23:28:41 10° NNE visible
01 Aug 5.9 01:13:41 10° NNW 01:19:22 24° NNE 01:25:24 10° E visible
01 Aug 4.1 03:04:05 10° NNW 03:11:32 74° NE 03:19:34 10° SE visible
01 Aug 4.8 04:55:52 10° WNW 05:02:01 27° WSW 05:08:27 10° SSW visible
01 Aug 6.4 22:36:17 10° NNW 22:39:19 13° N 22:42:27 10° NNE visible
02 Aug 6.1 00:28:36 10° NNW 00:33:27 19° NNE 00:38:34 10° ENE visible
02 Aug 4.6 02:18:57 10° NNW 02:26:08 52° NE 02:33:52 10° ESE visible
02 Aug 4.3 04:10:04 10° NW 04:17:04 42° WSW 04:24:28 10° S visible
02 Aug 6.3 21:49:41 10° NW 21:53:09 14° NNW 21:56:47 10° NNE visible
02 Aug 6.3 23:43:24 10° NNW 23:47:24 15° NNE 23:51:35 10° NE visible
03 Aug 5.2 01:33:52 10° NNW 01:40:36 37° NE 01:47:49 10° ESE visible
03 Aug 3.9 03:24:34 10° NW 03:31:59 63° WSW 03:39:46 11° SSE visible
03 Aug 5.5 05:19:04 10° W 05:21:46 12° WSW 05:24:30 10° WSW visible
03 Aug 6.2 21:02:58 10° WNW 21:07:05 17° NNW 21:11:27 10° NNE visible
03 Aug 6.3 22:57:57 10° NNW 23:01:15 14° N 23:04:40 10° NE visible
04 Aug 5.6 00:48:48 10° NNW 00:54:54 28° NE 01:01:24 10° E visible
04 Aug 3.9 02:39:16 10° NW 02:46:47 89° NE 02:52:05 24° SE visible
04 Aug 5.1 04:31:38 10° WNW 04:37:01 21° WSW 04:39:17 19° SW visible
04 Aug 6.3 22:12:05 10° NNW 22:15:03 13° N 22:18:08 10° NNE visible
05 Aug 5.9 00:03:44 10° NNW 00:09:04 21° NNE 00:14:42 10° ENE visible
05 Aug 4.3 01:54:05 10° NNW 02:01:27 63° NE 02:06:07 27° ESE visible
05 Aug 4.6 03:45:32 10° NW 03:52:08 33° WSW 03:53:23 32° SW visible
05 Aug 6.3 21:25:41 10° NW 21:28:52 14° N 21:32:11 10° NNE visible
05 Aug 6.1 23:18:36 10° NNW 23:23:05 17° NNE 23:27:46 10° ENE visible
06 Aug 4.8 01:08:59 10° NNW 01:16:00 45° NE 01:20:47 22° ESE visible
06 Aug 4.1 02:59:54 10° NW 03:07:08 51° WSW 03:08:04 48° SW visible
06 Aug 6.2 22:33:19 10° NNW 22:36:58 14° NNE 22:40:47 10° NE visible
